EST,Max TemperatureF,Mean TemperatureF,Min TemperatureF,Max Dew PointF,MeanDew PointF,Min DewpointF,Max Humidity, Mean Humidity, Min Humidity, Max Sea Level PressureIn, Mean Sea Level PressureIn, Min Sea Level PressureIn, Max VisibilityMiles, Mean VisibilityMiles, Min VisibilityMiles, Max Wind SpeedMPH, Mean Wind SpeedMPH, Max Gust SpeedMPH,PrecipitationIn, CloudCover, Events, WindDirDegrees
2014-1-1,14,10,6,4,3,-1,81,70,62,30.40,30.34,30.32,10,10,7,13,5,17,0.00,5,,87
2014-1-2,11,8,6,2,-1,-5,81,64,53,30.34,30.28,30.24,10,9,2,12,7,,0.00,7,Snow,68
2014-1-3,24,15,6,19,8,0,85,80,73,30.37,30.19,29.83,10,6,0,25,6,37,0.00,8,Snow,163
2014-1-4,32,28,24,30,25,20,94,85,73,30.01,29.81,29.69,10,6,0,33,21,44,0.00,7,Snow,246
2014-1-5,25,20,14,21,15,11,88,81,71,30.10,30.00,29.83,10,8,1,14,7,21,0.00,8,Snow,26
2014-1-6,14,5,-4,12,-3,-10,89,80,74,30.02,29.91,29.79,4,1,0,20,13,31,0.00,8,Snow,312
2014-1-7,9,3,-3,4,-2,-10,82,78,74,30.22,30.09,30.00,7,2,0,17,12,26,0.00,8,Snow,280
2014-1-8,14,12,9,9,5,3,83,78,76,30.47,30.34,30.23,10,6,1,13,7,18,0.00,8,Snow,279
2014-1-9,19,15,11,16,10,7,85,81,73,30.50,30.39,30.19,10,9,2,12,4,17,0.00,8,Snow,137
2014-1-10,41,30,19,40,29,16,96,93,86,30.18,29.89,29.50,10,4,0,18,8,28,0.36,8,Fog-Rain-Snow,151
2014-1-11,39,36,32,38,33,27,97,90,79,29.64,29.44,29.34,10,7,0,20,12,28,0.23,8,Fog-Rain-Snow,269
2014-1-12,39,34,30,32,29,25,89,78,56,29.81,29.68,29.58,10,10,7,24,11,33,0.00,4,,214
2014-1-13,39,36,32,35,32,24,93,84,71,29.67,29.55,29.48,10,10,7,20,12,30,0.00,6,Rain,235
2014-1-14,34,29,24,33,25,20,95,83,67,29.70,29.61,29.53,10,7,1,17,7,23,0.02,6,Snow,182
2014-1-15,24,22,19,23,16,13,92,83,75,29.97,29.86,29.62,10,6,0,21,12,28,0.00,8,Snow,298
2014-1-16,29,24,20,28,23,15,94,89,78,29.78,29.55,29.46,7,3,0,25,15,34,0.00,8,Snow,168
2014-1-17,29,24,19,28,20,17,96,90,85,29.84,29.72,29.53,10,6,2,15,7,22,0.00,8,Snow,232
2014-1-18,24,22,19,21,19,16,93,89,83,29.84,29.82,29.75,10,6,1,8,2,,0.00,8,Snow,164
2014-1-19,32,26,21,28,24,18,92,83,76,29.75,29.55,29.47,10,8,2,23,12,32,0.00,8,Snow,262
2014-1-20,24,18,9,25,12,5,91,78,67,30.13,29.87,29.52,10,7,2,14,8,21,0.00,8,Snow,25
2014-1-21,12,9,6,6,5,2,87,81,71,30.24,30.18,30.14,10,5,1,12,4,16,0.00,8,Snow,65
2014-1-22,14,12,9,11,7,4,87,83,75,30.13,29.94,29.81,10,3,0,15,7,23,0.00,8,Snow,221
2014-1-23,14,4,-6,8,3,-10,88,74,57,30.45,30.29,29.97,10,8,0,13,6,17,0.00,5,Snow,357
2014-1-24,29,19,9,28,12,2,93,82,72,30.38,29.84,29.31,10,2,0,37,19,47,0.00,8,Snow,237
2014-1-25,29,19,9,28,9,-2,93,75,55,29.74,29.50,29.26,10,4,0,22,15,33,0.00,8,Snow,324
2014-1-26,19,14,9,15,7,0,86,78,63,29.73,29.47,29.28,10,5,0,18,8,31,0.00,8,Snow,222
2014-1-27,11,6,0,7,-4,-8,85,74,59,30.26,30.01,29.54,7,2,0,22,14,38,0.00,8,Snow,313
2014-1-28,6,4,1,1,-2,-4,81,76,69,30.26,30.18,30.05,7,3,1,17,10,29,0.00,8,Snow,269
2014-1-29,27,16,6,18,7,0,83,73,64,30.05,30.01,29.92,10,7,2,24,14,33,0.00,4,Snow,246
2014-1-30,32,30,27,28,23,17,92,77,67,29.91,29.72,29.57,10,7,0,29,19,38,0.00,6,Snow,216
2014-1-31,27,20,10,24,12,7,88,79,74,30.12,30.04,29.79,10,10,5,16,7,24,0.00,7,Snow,289